User: anonymous   Login
Location: Sperry Observatory
(40.6664°N, 74.3236°W)
Time: 09:56:03
(UTC-04:00)
Language:

JAS-2 - Orbit

View from above orbital plane
View from above orbital plane
View from above satellite
View from above satellite

Ground track
Ground track

The orbit data is extracted from the following two-line orbital elements,

1 24278U 96046B   16180.78031110 -.00000012 +00000-0 +22657-4 0  9995
2 24278 098.5855 104.4808 0350518 172.4573 188.2038 13.53068603980823
Epoch (UTC): 28 June 2016 18:43:38
Eccentricity: 0.0350518
inclination: 98.5855°
perigee height: 800 km
apogee height: 1322 km
right ascension of ascending node: 104.4808°
argument of perigee: 172.4573°
revolutions per day: 13.53068603
mean anomaly at epoch: 188.2038°
orbit number at epoch: 98082

The dashed part of the orbit path shows where the satellite is in the earth's shadow,  

DLR